PBO Station Position Time Series. Reference Frame : NAM14
Format Version,1.1.0
4-character ID,QCY2
Station name,QCY2_BARD_CN2006
Begin Date, 2006-05-17
End Date, 2019-10-07
Release Date, 2019-10-08
Reference position, 36.1610666177 North Latitude, -121.1373489433 East Longitude, 101.43837 meters elevation,
Date, North (mm), East (mm), Vertical (mm), North Std. Deviation (mm), East Std. Deviation (mm),              Vertical Std. Deviation (mm), Quality,
2006-05-17,0.00, 0.00, 0.00, 1.99, 1.65, 7.53, repro,
2006-05-18,0.23, -0.53, -4.11, 2.10, 1.66, 7.82, repro,
2006-05-19,1.25, -0.85, -8.34, 2.07, 1.64, 7.61, repro,
2006-05-20,0.92, -1.05, 0.06, 2.03, 1.64, 7.61, repro,
2006-05-21,0.36, -1.01, 1.69, 2.08, 1.65, 7.64, repro,
2006-05-22,-0.17, -2.04, 5.48, 2.03, 1.67, 7.62, repro,
2006-05-23,-2.57, -1.90, -1.85, 2.04, 1.63, 7.58, repro,
2006-05-24,-1.53, -2.36, -1.93, 2.01, 1.61, 7.42, repro,
2006-05-25,0.09, -0.93, -7.15, 2.13, 1.68, 7.86, repro,
2006-05-26,-2.88, -0.49, 2.78, 2.07, 1.65, 7.70, repro,
2006-05-27,0.44, -0.33, 10.56, 2.02, 1.63, 7.52, repro,
2006-05-28,-0.04, -0.33, 2.83, 2.03, 1.63, 7.55, repro,
2006-05-29,-0.41, -0.08, 3.26, 2.03, 1.62, 7.50, repro,
2006-05-30,0.85, -0.59, -7.56, 2.06, 1.63, 7.54, repro,
2006-05-31,-0.30, -0.05, -1.04, 2.10, 1.69, 7.75, repro,
2006-06-01,-0.33, -0.01, -5.30, 2.05, 1.65, 7.60, repro,
2006-06-02,-0.99, 0.50, -0.79, 2.18, 1.72, 8.04, repro,
2006-06-03,-1.07, 0.14, 2.44, 2.10, 1.67, 7.76, repro,
2006-06-04,-2.05, 0.25, 7.89, 2.07, 1.64, 7.62, repro,
2006-06-05,1.01, -0.54, -4.31, 2.09, 1.67, 7.75, repro,
2006-06-06,-0.02, 1.29, -6.33, 2.11, 1.71, 7.82, repro,
2006-06-07,0.10, 0.48, 0.05, 2.08, 1.65, 7.72, repro,
2006-06-08,-0.56, -0.53, -4.08, 2.01, 1.63, 7.51, repro,
2006-06-09,-1.49, -1.46, -2.27, 2.09, 1.68, 7.71, repro,
2006-06-10,0.84, -0.75, -0.58, 2.02, 1.62, 7.49, repro,
2006-06-11,-1.37, -0.43, 3.90, 2.06, 1.65, 7.62, repro,
2006-06-12,-1.59, -0.32, 2.14, 2.08, 1.66, 7.70, repro,
2006-06-13,-1.29, -0.30, 3.38, 2.08, 1.66, 7.71, repro,
2006-06-14,-0.93, -0.62, 0.58, 2.01, 1.61, 7.45, repro,
2006-06-15,1.94, 0.18, 12.45, 2.04, 1.63, 7.55, repro,
2006-06-16,1.50, -1.42, 3.95, 2.03, 1.62, 7.49, repro,
2006-06-17,-1.63, -0.10, 5.60, 2.02, 1.62, 7.46, repro,
2006-06-18,-0.68, -0.14, 1.45, 2.06, 1.68, 7.82, repro,
2006-06-19,-0.30, -0.43, 6.67, 2.05, 1.67, 7.74, repro,
2006-06-20,0.78, -1.65, 1.78, 2.04, 1.67, 7.71, repro,
2006-06-21,-0.14, -1.15, 1.46, 2.05, 1.66, 7.68, repro,
2006-06-22,0.51, -0.94, -1.89, 2.06, 1.66, 7.70, repro,
2006-06-23,0.12, -0.55, -2.49, 2.06, 1.68, 7.82, repro,
2006-06-24,0.15, -1.09, -4.42, 2.07, 1.68, 7.81, repro,
2006-06-25,0.86, -0.51, -4.69, 2.04, 1.67, 7.72, repro,
2006-06-26,0.63, -0.17, 5.07, 2.15, 1.77, 8.24, repro,
2006-06-27,0.03, -0.24, 7.28, 2.05, 1.67, 7.71, repro,
2006-06-28,-0.13, -0.57, -1.44, 2.06, 1.67, 7.78, repro,
2006-06-29,-0.27, -0.38, 7.40, 1.99, 1.65, 7.59, repro,
2006-06-30,0.15, -0.28, -0.28, 2.01, 1.64, 7.65, repro,
2006-07-01,0.56, -1.17, 1.81, 2.00, 1.63, 7.60, repro,
2006-07-02,-0.34, 0.44, -1.03, 2.05, 1.68, 7.77, repro,
2006-07-03,-0.04, -1.25, -7.05, 2.02, 1.63, 7.65, repro,
2006-07-04,-0.45, -0.97, -4.51, 2.01, 1.63, 7.60, repro,
2006-07-05,0.46, -1.14, 0.25, 2.01, 1.64, 7.65, repro,
2006-07-06,0.29, -0.66, -9.10, 2.02, 1.63, 7.63, repro,
2006-07-07,0.05, -1.55, -9.87, 2.02, 1.63, 7.67, repro,
2006-07-08,-0.98, -0.26, -3.19, 2.00, 1.62, 7.59, repro,
2006-07-09,-1.46, -2.16, 1.18, 2.03, 1.65, 7.72, repro,
2006-07-10,-1.06, 0.19, -1.09, 2.04, 1.65, 7.72, repro,
2006-07-11,-0.23, -0.98, 2.23, 2.02, 1.64, 7.72, repro,
2006-07-12,-0.36, -0.62, -7.74, 2.03, 1.64, 7.73, repro,
2006-07-13,0.10, -0.25, -7.54, 2.03, 1.63, 7.69, repro,
2006-07-14,0.34, -0.27, -2.35, 2.01, 1.64, 7.67, repro,
2006-07-15,1.66, -0.18, -3.23, 2.04, 1.63, 7.71, repro,
2006-07-16,-1.80, -0.88, -0.41, 2.03, 1.65, 7.77, repro,
2006-07-17,0.03, -0.89, -2.40, 2.09, 1.74, 8.07, repro,
2006-07-18,-0.20, -0.32, 3.59, 1.97, 1.61, 7.41, repro,
2006-07-19,0.51, -1.43, -3.55, 1.95, 1.61, 7.41, repro,
2006-07-20,-0.41, -0.73, -2.98, 1.99, 1.63, 7.55, repro,
2006-07-21,0.34, 0.00, -2.76, 1.97, 1.61, 7.47, repro,
2006-07-22,0.66, -1.77, -0.12, 2.06, 1.64, 7.80, repro,
2006-07-23,0.17, 1.70, 4.23, 2.21, 1.86, 8.63, repro,
2006-07-24,0.42, -1.75, 8.93, 1.98, 1.61, 7.43, repro,
2006-07-25,-0.41, -1.16, 5.52, 1.98, 1.65, 7.49, repro,
2006-07-26,-0.40, -0.84, 8.47, 2.01, 1.66, 7.53, repro,
2006-07-27,0.66, 0.25, 0.90, 1.97, 1.61, 7.44, repro,
2006-07-28,0.29, 0.23, 1.34, 1.99, 1.61, 7.47, repro,
2006-07-29,1.06, 0.49, 3.44, 1.94, 1.60, 7.38, repro,
2006-07-30,0.90, -1.79, 4.17, 1.99, 1.66, 7.51, repro,
2006-07-31,-0.06, -0.37, -2.62, 1.96, 1.63, 7.48, repro,
2006-08-01,0.75, -0.77, -0.84, 1.96, 1.61, 7.43, repro,
2006-08-02,0.41, -1.75, -0.51, 1.98, 1.65, 7.68, repro,
2006-08-03,0.18, -0.81, 7.06, 2.03, 1.72, 7.89, repro,
2006-08-04,0.55, -0.14, -0.72, 2.04, 1.68, 7.78, repro,
2006-08-05,0.20, -1.30, -5.53, 2.04, 1.72, 7.94, repro,
2006-08-06,-0.72, 0.64, -0.85, 2.00, 1.66, 7.71, repro,
2006-08-07,-0.80, -0.46, -2.71, 1.99, 1.65, 7.66, repro,
2006-08-08,0.08, -1.29, -3.77, 2.06, 1.70, 7.97, repro,
2006-08-09,-1.02, 1.23, -1.63, 1.99, 1.66, 7.58, repro,
2006-08-10,1.41, -1.58, -2.55, 1.96, 1.62, 7.41, repro,
2006-08-11,-0.58, 0.54, 2.44, 1.96, 1.61, 7.43, repro,
2006-08-12,0.71, -0.50, -2.44, 1.99, 1.66, 7.55, repro,
2006-08-13,0.59, -0.98, 1.65, 2.01, 1.67, 7.63, repro,
2006-08-14,1.26, -1.04, 1.23, 1.99, 1.67, 7.59, repro,
2006-08-15,0.15, 0.71, 4.86, 2.07, 1.69, 7.74, repro,
2006-08-16,-0.99, -0.78, -0.02, 1.99, 1.66, 7.56, repro,
2006-08-17,-0.51, -1.20, -4.06, 1.99, 1.66, 7.54, repro,
2006-08-18,0.04, -0.43, -1.39, 2.02, 1.70, 7.69, repro,
2006-08-19,-0.32, -0.40, -4.32, 1.96, 1.61, 7.47, repro,
2006-08-20,0.26, -0.92, 2.74, 1.94, 1.60, 7.34, repro,
2006-08-21,-0.12, 0.32, 0.52, 1.95, 1.64, 7.46, repro,
2006-08-22,-1.03, -0.58, 3.88, 1.95, 1.63, 7.41, repro,
2006-08-23,0.10, -0.75, 1.07, 1.97, 1.65, 7.52, repro,
2006-08-24,0.66, -0.22, 4.10, 1.97, 1.65, 7.53, repro,
2006-08-25,-0.11, -0.07, 7.22, 1.99, 1.68, 7.73, repro,
2006-08-26,0.35, -0.73, 3.20, 2.03, 1.72, 7.92, repro,
2006-08-27,-0.73, -0.98, 0.92, 2.03, 1.74, 7.93, repro,
2006-08-28,-1.50, -0.33, -1.91, 2.07, 1.79, 8.06, repro,
2006-08-29,-0.84, 0.89, -0.13, 2.06, 1.75, 8.06, repro,
2006-08-30,0.31, -0.77, 1.93, 2.08, 1.75, 8.07, repro,
2006-08-31,-0.86, -1.16, 2.34, 2.01, 1.73, 7.82, repro,
2006-09-01,-0.39, -0.52, -1.76, 2.08, 1.77, 8.14, repro,
2006-09-02,-0.98, -0.02, -2.68, 2.02, 1.72, 7.83, repro,
2006-09-03,-0.27, -0.31, -4.23, 2.05, 1.73, 7.93, repro,
2006-09-04,-0.07, -0.72, -6.78, 2.10, 1.76, 8.07, repro,
2006-09-05,0.90, 0.61, -10.66, 2.07, 1.77, 8.01, repro,
2006-09-06,0.45, -0.00, -3.36, 2.03, 1.73, 7.87, repro,
2006-09-07,-0.30, 0.45, 10.15, 2.08, 1.77, 8.08, repro,
2006-09-08,0.28, -0.34, -1.53, 2.09, 1.78, 8.17, repro,
2006-09-09,-0.48, -2.45, -0.14, 2.00, 1.69, 7.66, repro,
2006-09-10,0.54, -0.63, -1.00, 1.99, 1.68, 7.59, repro,
2006-09-11,-0.41, -1.61, 1.67, 1.99, 1.69, 7.58, repro,
2006-09-12,0.88, -1.24, -2.20, 2.02, 1.69, 7.64, repro,
2006-09-13,0.32, -1.11, -1.23, 2.02, 1.68, 7.64, repro,
2006-09-14,-1.19, -1.36, 0.66, 2.17, 1.87, 8.19, repro,
2006-09-15,0.97, -0.82, -6.10, 2.04, 1.68, 7.67, repro,
2006-09-16,0.14, 0.12, 2.81, 1.95, 1.64, 7.44, repro,
2006-09-17,0.24, -1.10, -0.44, 1.98, 1.64, 7.53, repro,
2006-09-18,-0.49, -1.05, 6.31, 1.98, 1.64, 7.54, repro,
2006-09-19,-0.54, -0.89, 2.19, 1.98, 1.65, 7.58, repro,
2006-09-20,-1.06, -1.69, 0.29, 1.98, 1.65, 7.56, repro,
2006-09-21,-1.13, -1.39, 6.50, 2.00, 1.69, 7.67, repro,
2006-09-22,0.16, -2.37, -1.02, 2.03, 1.72, 7.74, repro,
2006-09-23,-0.48, -1.47, 3.50, 2.06, 1.68, 7.68, repro,
2006-09-24,1.56, -1.15, 0.49, 2.10, 1.71, 7.86, repro,
2006-09-25,-0.47, -0.67, -4.02, 2.10, 1.70, 7.91, repro,
2006-09-26,0.36, -1.77, -6.09, 2.07, 1.73, 7.74, repro,
2006-09-27,-0.10, -1.15, -3.46, 2.01, 1.66, 7.50, repro,
2006-09-28,-0.69, -1.81, 0.47, 2.09, 1.78, 7.82, repro,
2006-09-29,-0.91, -0.44, 6.11, 2.04, 1.66, 7.60, repro,
2006-09-30,-0.84, -0.66, 7.99, 2.03, 1.69, 7.80, repro,
2006-10-01,-0.38, 0.22, 0.07, 2.00, 1.66, 7.62, repro,
2006-10-02,-0.38, -0.66, 1.76, 2.04, 1.73, 7.72, repro,
2006-10-03,-0.84, -0.59, -2.72, 2.13, 1.79, 7.99, repro,
2006-10-04,-0.86, -1.86, -0.93, 2.05, 1.67, 7.67, repro,
2006-10-05,-1.99, -0.39, -2.50, 2.18, 1.83, 8.48, repro,
2006-10-06,-0.20, -0.38, -2.36, 2.04, 1.69, 7.86, repro,
2006-10-07,0.80, -1.49, -10.24, 2.09, 1.82, 8.20, repro,
2006-10-08,-0.00, -1.42, -4.04, 2.05, 1.72, 7.90, repro,
2006-10-09,-0.27, -2.21, -0.99, 2.08, 1.73, 8.00, repro,
2006-10-10,-1.33, -1.70, -3.01, 2.01, 1.67, 7.69, repro,
2006-10-11,-0.88, -0.78, -1.82, 2.01, 1.68, 7.73, repro,
2006-10-12,0.33, -0.83, 0.18, 2.04, 1.67, 7.70, repro,
2006-10-13,-1.41, -1.66, 7.84, 2.00, 1.66, 7.64, repro,
2006-10-14,0.32, -1.16, -1.41, 1.98, 1.68, 7.70, repro,
2006-10-15,-0.16, -1.06, 10.34, 1.98, 1.69, 7.73, repro,
2006-10-16,-1.48, -0.93, 10.44, 2.04, 1.69, 7.78, repro,
2006-10-17,-1.50, 0.34, 8.19, 2.07, 1.75, 8.14, repro,
2006-10-18,0.64, -0.52, 0.92, 2.07, 1.81, 8.23, repro,
2006-10-19,-0.50, -0.44, -0.69, 2.08, 1.74, 7.99, repro,
2006-10-20,-0.27, -0.57, 4.06, 2.20, 1.83, 8.93, repro,
2006-10-21,-1.57, -0.86, 2.04, 2.18, 1.79, 8.34, repro,
2006-10-22,-1.79, -0.35, 7.29, 2.00, 1.73, 7.85, repro,
2006-10-23,0.41, -0.47, -4.39, 2.03, 1.73, 7.98, repro,
2006-10-24,-0.95, -1.17, 4.83, 2.04, 1.74, 7.91, repro,
2006-10-25,-0.24, -2.12, 7.02, 2.06, 1.74, 7.89, repro,
2006-10-26,0.82, -0.61, 3.97, 2.00, 1.74, 7.83, repro,
2006-10-27,-1.17, -0.27, 0.87, 1.98, 1.71, 7.79, repro,
2006-10-28,-0.26, -0.74, 0.09, 1.98, 1.69, 7.76, repro,
2006-10-29,-1.17, -1.73, 0.73, 2.00, 1.74, 7.75, repro,
2006-10-30,-1.64, -1.65, 3.02, 1.94, 1.64, 7.51, repro,
2006-10-31,-0.64, -1.14, 2.35, 1.95, 1.66, 7.55, repro,
2006-11-01,-0.77, -1.01, 1.44, 1.97, 1.69, 7.69, repro,
2006-11-02,1.38, -0.56, 10.06, 1.98, 1.68, 7.70, repro,
2006-11-03,-0.49, -0.53, 5.04, 1.98, 1.72, 7.76, repro,
2006-11-04,0.42, -0.52, 1.66, 2.03, 1.72, 7.86, repro,
2006-11-05,-0.77, -0.19, 0.31, 2.02, 1.71, 7.75, repro,
2006-11-06,-1.30, -1.14, -1.18, 1.95, 1.66, 7.57, repro,
2006-11-07,-0.54, -0.70, 0.39, 2.05, 1.75, 8.05, repro,
2006-11-08,-0.66, -2.23, 1.81, 2.05, 1.74, 8.04, repro,
2006-11-09,0.37, -0.02, 10.61, 2.08, 1.81, 8.25, repro,
2006-11-10,-1.08, -1.34, 2.79, 2.03, 1.68, 7.80, repro,
2006-11-11,-0.18, -0.60, -0.80, 2.03, 1.73, 7.97, repro,
2006-11-12,-1.44, -0.87, -0.22, 2.08, 1.79, 8.07, repro,
2006-11-13,-1.68, 2.12, 5.79, 2.04, 1.75, 7.86, repro,
2006-11-14,-1.40, -0.92, 10.15, 1.94, 1.64, 7.48, repro,
2006-11-15,-0.88, -0.92, -4.56, 1.92, 1.64, 7.43, repro,
2006-11-16,0.08, -0.81, 1.45, 1.93, 1.64, 7.41, repro,
2006-11-17,-1.09, -0.48, 1.80, 1.94, 1.65, 7.50, repro,
2006-11-18,-0.73, -1.68, -1.84, 1.95, 1.71, 7.58, repro,
2006-11-19,-0.79, -1.36, -9.68, 1.92, 1.63, 7.39, repro,
2006-11-20,-0.53, -0.75, -2.61, 1.93, 1.64, 7.43, repro,
2006-11-21,-0.50, -1.72, -0.92, 1.92, 1.64, 7.40, repro,
2006-11-22,-0.48, -1.70, -6.76, 1.93, 1.64, 7.44, repro,
2006-11-23,-1.30, -1.38, 1.56, 1.97, 1.70, 7.72, repro,
2006-11-24,-1.01, -1.14, -0.44, 2.01, 1.72, 7.77, repro,
2006-11-25,-0.43, -2.32, -0.68, 1.96, 1.64, 7.46, repro,
2006-11-26,-1.15, -0.63, 2.60, 1.97, 1.66, 7.53, repro,
2006-11-27,-0.26, -1.15, -4.21, 1.94, 1.65, 7.46, repro,
2006-11-28,-0.81, -1.11, 3.49, 1.97, 1.71, 7.66, repro,
2006-11-29,-0.94, -1.45, -2.21, 1.93, 1.65, 7.45, repro,
2006-11-30,-0.09, -0.63, -6.01, 1.94, 1.66, 7.48, repro,
2006-12-01,-1.04, -0.72, -9.02, 1.94, 1.64, 7.41, repro,
2006-12-02,-1.61, -0.83, -5.09, 1.94, 1.64, 7.38, repro,
2006-12-03,-1.40, -1.00, -9.58, 1.93, 1.65, 7.46, repro,
2006-12-04,-0.33, -1.24, -11.80, 1.99, 1.67, 7.60, repro,
2006-12-05,-0.56, -1.26, -3.39, 1.98, 1.71, 7.58, repro,
2006-12-06,1.02, -2.08, -7.15, 2.04, 1.82, 7.94, repro,
2006-12-07,-0.61, -1.55, -0.86, 1.97, 1.72, 7.60, repro,
2006-12-08,-0.00, -2.38, -0.26, 1.99, 1.74, 7.70, repro,
2006-12-09,-0.02, -2.10, 1.18, 1.98, 1.76, 7.74, repro,
2006-12-10,-1.78, -2.53, 0.49, 2.00, 1.75, 7.70, repro,
2006-12-11,-0.80, -2.90, -7.96, 1.96, 1.69, 7.61, repro,
2006-12-12,0.56, -1.76, -8.82, 2.02, 1.75, 7.78, repro,
2006-12-13,0.15, -1.09, -4.83, 1.94, 1.68, 7.52, repro,
2006-12-14,0.02, -2.00, -4.02, 1.92, 1.68, 7.45, repro,
2006-12-15,-0.14, -0.98, -1.84, 2.01, 1.77, 7.81, repro,
2006-12-16,-1.93, -2.79, 3.31, 2.02, 1.77, 7.77, repro,
2006-12-17,-0.31, -2.53, -12.53, 2.06, 1.84, 8.15, repro,
2006-12-18,0.70, -1.53, -1.71, 2.17, 1.95, 8.64, repro,
2006-12-19,1.40, -1.02, -7.06, 2.06, 1.91, 8.19, repro,
2006-12-20,1.30, -1.95, -10.54, 2.08, 1.89, 8.08, repro,
2006-12-21,-0.54, -1.52, -7.69, 1.95, 1.80, 7.66, repro,
2006-12-22,-0.22, -1.52, -0.00, 2.05, 1.89, 8.15, repro,
2006-12-23,1.48, -2.12, -6.19, 2.05, 1.87, 8.16, repro,
2006-12-24,0.74, -1.01, -8.36, 1.94, 1.70, 7.61, repro,
2006-12-25,-0.86, -0.86, -19.19, 1.99, 1.80, 7.74, repro,
2006-12-26,-0.87, 0.99, -5.35, 1.98, 1.73, 7.66, repro,
2006-12-27,1.65, -0.14, -6.21, 2.03, 1.83, 8.02, repro,
2006-12-28,1.29, -3.06, -0.32, 2.19, 2.03, 8.64, repro,
2006-12-29,0.90, -2.90, -12.22, 2.00, 1.78, 7.85, repro,
2006-12-30,0.89, -0.87, -2.98, 2.00, 1.78, 7.81, repro,
2006-12-31,-0.47, -1.24, -6.70, 2.12, 1.87, 8.28, repro,
2007-01-01,-0.52, -0.94, -4.55, 2.14, 1.94, 8.34, repro,
2007-01-02,0.12, -1.53, -6.04, 2.14, 1.98, 8.50, repro,
2007-01-03,1.56, -2.15, 0.37, 1.98, 1.82, 7.92, repro,
2007-01-04,-0.28, -2.15, 6.48, 1.93, 1.70, 7.58, repro,
2007-01-05,2.29, -3.89, -5.77, 1.91, 1.69, 7.53, repro,
2007-01-06,0.42, -1.22, -7.35, 1.94, 1.76, 7.65, repro,
2007-01-07,0.47, -1.17, -10.72, 1.96, 1.69, 7.60, repro,
2007-01-08,0.15, -1.88, -9.37, 1.99, 1.73, 7.65, repro,
2007-01-09,0.36, -1.76, -12.24, 1.97, 1.68, 7.50, repro,
2007-01-10,0.03, -1.66, -7.99, 1.98, 1.68, 7.53, repro,
2007-01-11,0.03, -1.83, -8.51, 2.01, 1.70, 7.72, repro,
2007-01-12,1.36, -1.23, -13.10, 1.94, 1.65, 7.41, repro,
2007-01-13,0.20, -1.14, -11.72, 1.89, 1.61, 7.14, repro,
2007-01-14,-0.36, -1.11, -9.25, 1.91, 1.62, 7.21, repro,
2007-01-15,-1.04, -1.20, -13.80, 1.90, 1.62, 7.27, repro,
2007-01-16,0.66, -2.20, -17.16, 1.95, 1.64, 7.37, repro,
2007-01-17,-0.78, -0.68, -13.85, 1.93, 1.69, 7.49, repro,
2007-01-18,0.13, -1.42, -14.38, 1.96, 1.68, 7.46, repro,
2007-01-19,0.24, -1.83, -10.86, 1.95, 1.63, 7.47, repro,
2007-01-20,0.47, -0.54, -4.33, 1.95, 1.63, 7.50, repro,
2007-01-21,0.47, -0.53, -9.29, 1.90, 1.62, 7.23, repro,
2007-01-22,-0.96, -0.18, -8.35, 1.91, 1.66, 7.44, repro,
2007-01-23,0.29, -0.63, -11.80, 1.90, 1.63, 7.21, repro,
2007-01-24,-0.98, -0.85, -17.13, 1.92, 1.67, 7.29, repro,
2007-01-25,-0.53, -1.44, -16.06, 1.93, 1.67, 7.25, repro,
2007-01-26,-0.80, -1.43, -12.22, 1.89, 1.62, 7.20, repro,
2007-01-27,-0.77, -2.18, -1.39, 1.91, 1.62, 7.19, repro,
2007-01-28,0.50, -1.24, -10.09, 1.90, 1.62, 7.19, repro,
2007-01-29,-0.56, 0.30, -10.33, 1.91, 1.64, 7.27, repro,
2007-01-30,0.05, -0.20, -1.50, 1.89, 1.63, 7.20, repro,
2007-01-31,-0.83, -1.41, -6.76, 1.89, 1.61, 7.13, repro,
2007-02-01,-1.61, -0.62, -7.39, 1.92, 1.66, 7.32, repro,
2007-02-02,-1.17, -0.09, -5.00, 1.93, 1.64, 7.34, repro,
2007-02-03,-0.45, -0.49, -9.63, 1.94, 1.64, 7.42, repro,
2007-02-04,-0.91, -0.52, -12.70, 1.87, 1.61, 7.11, repro,
2007-02-05,-0.97, -0.41, -10.98, 1.88, 1.61, 7.12, repro,
2007-02-06,-1.50, 0.00, -8.38, 1.94, 1.64, 7.31, repro,
2007-02-07,0.46, -0.27, -7.92, 1.89, 1.61, 7.14, repro,
2007-02-08,-0.76, -0.30, -8.16, 1.98, 1.70, 7.57, repro,
2007-02-09,-0.27, 0.39, -3.12, 1.93, 1.68, 7.41, repro,
2007-02-10,0.43, 1.46, -13.08, 1.89, 1.61, 7.13, repro,
2007-02-11,-0.50, -0.78, -3.35, 1.91, 1.64, 7.23, repro,
2007-02-12,-0.72, 0.31, -13.05, 1.88, 1.61, 7.11, repro,
2007-02-13,-1.35, -0.29, -5.78, 1.87, 1.62, 7.14, repro,
2007-02-14,-1.24, -0.25, -14.22, 1.91, 1.62, 7.22, repro,
2007-02-15,1.20, 0.37, -10.81, 1.91, 1.64, 7.26, repro,
2007-02-16,0.95, 0.75, -6.77, 1.91, 1.63, 7.24, repro,
2007-02-17,-0.07, -0.59, -9.45, 1.94, 1.67, 7.29, repro,
2007-02-18,-0.64, 0.03, -5.85, 1.89, 1.63, 7.26, repro,
2007-02-19,0.38, -0.72, -2.48, 1.90, 1.63, 7.25, repro,
2007-02-20,-0.08, -0.49, 2.89, 1.90, 1.62, 7.29, repro,
2007-02-21,-0.59, -0.16, -5.23, 1.91, 1.61, 7.22, repro,
2007-02-22,-1.15, 1.34, 0.85, 1.93, 1.67, 7.38, repro,
2007-02-23,0.22, 0.08, -8.19, 1.99, 1.70, 7.49, repro,
2007-02-24,-0.37, -0.51, -1.47, 1.91, 1.63, 7.28, repro,
2007-02-25,0.15, -0.26, -7.79, 1.89, 1.61, 7.16, repro,
2007-02-26,-0.25, -0.36, -3.68, 1.88, 1.60, 7.12, repro,
2007-02-27,-0.66, 0.55, 11.31, 1.91, 1.61, 7.18, repro,
2007-02-28,-0.79, 0.24, 0.06, 1.90, 1.61, 7.17, repro,
2007-03-01,-0.32, 0.34, -1.99, 1.95, 1.69, 7.46, repro,
2007-03-02,-0.30, -0.26, -6.44, 1.94, 1.68, 7.43, repro,
2007-03-03,-0.67, -0.16, -12.81, 1.89, 1.63, 7.24, repro,
2007-03-04,-0.05, 0.63, -7.15, 1.91, 1.65, 7.29, repro,
2007-03-05,-0.71, -1.06, -3.81, 1.94, 1.65, 7.37, repro,
2007-03-06,-1.60, -2.10, -7.27, 1.91, 1.66, 7.33, repro,
2007-03-07,1.94, -0.95, -3.74, 1.94, 1.67, 7.48, repro,
2007-03-08,-0.46, -0.36, -2.97, 1.91, 1.64, 7.26, repro,
2007-03-09,-0.94, -2.13, -7.41, 1.93, 1.65, 7.41, repro,
2007-03-10,-1.55, 1.14, 3.14, 1.98, 1.69, 7.57, repro,
2007-03-11,-0.92, -1.37, -14.11, 1.94, 1.67, 7.41, repro,
2007-03-12,-0.66, -0.03, -7.49, 1.93, 1.66, 7.40, repro,
2007-03-13,-0.96, -0.40, -1.34, 1.89, 1.62, 7.22, repro,
2007-03-14,-1.54, 0.04, 2.35, 1.89, 1.61, 7.19, repro,
2007-03-15,-1.31, 0.25, -6.51, 1.96, 1.67, 7.48, repro,
2007-03-16,-1.06, -1.28, -4.77, 1.94, 1.63, 7.25, repro,
2007-03-17,-0.17, -0.85, 0.11, 1.89, 1.59, 7.06, repro,
2007-03-18,-0.57, -1.48, -2.85, 1.89, 1.61, 7.16, repro,
2007-03-19,-1.22, -0.65, -1.73, 1.91, 1.63, 7.22, repro,
2007-03-20,-0.86, 0.23, -1.84, 1.96, 1.64, 7.38, repro,
2007-03-21,-0.55, -0.84, -1.34, 2.00, 1.68, 7.55, repro,
2007-03-22,-1.69, -1.88, -4.78, 1.93, 1.64, 7.36, repro,
2007-03-23,1.20, -1.11, -1.86, 1.92, 1.63, 7.28, repro,
2007-03-24,-0.56, -1.29, 3.00, 1.92, 1.65, 7.37, repro,
2007-03-25,-0.84, 0.23, 0.30, 1.91, 1.60, 7.20, repro,
2007-03-26,-0.24, -0.02, -11.61, 1.91, 1.61, 7.21, repro,
2007-03-27,0.95, -0.10, 1.31, 1.98, 1.64, 7.40, repro,
2007-03-28,-0.84, -1.06, -4.29, 2.05, 1.68, 7.73, repro,
2007-03-29,-0.58, -0.66, -2.10, 1.91, 1.59, 7.17, repro,
2007-03-30,-0.26, -0.13, -1.19, 1.90, 1.60, 7.16, repro,
2007-03-31,-0.34, -0.76, -6.18, 1.89, 1.59, 7.11, repro,
2007-04-01,-1.45, -1.02, -0.23, 1.91, 1.61, 7.22, repro,
2007-04-02,-0.03, -1.15, -7.53, 1.92, 1.61, 7.24, repro,
2007-04-03,-0.59, -1.55, -6.61, 1.94, 1.64, 7.34, repro,
2007-04-04,-0.68, -0.45, -4.30, 1.93, 1.64, 7.31, repro,
2007-04-05,-1.82, -0.99, -1.14, 2.00, 1.74, 7.60, repro,
2007-04-06,-1.56, -0.52, -4.46, 2.00, 1.72, 7.61, repro,
2007-04-07,-1.28, -0.13, 1.21, 1.97, 1.67, 7.47, repro,
2007-04-08,-0.33, -1.50, -3.77, 1.94, 1.60, 7.24, repro,
2007-04-09,-0.74, -0.70, -2.72, 1.90, 1.59, 7.12, repro,
2007-04-10,0.20, -1.73, -2.90, 1.93, 1.64, 7.31, repro,
2007-04-11,-1.43, -0.95, 3.05, 1.90, 1.59, 7.11, repro,
2007-04-12,1.49, -3.26, 4.69, 1.91, 1.61, 7.23, repro,
2007-04-13,-0.66, -0.24, -2.32, 1.92, 1.60, 7.21, repro,
2007-04-14,-0.32, -0.05, 1.91, 1.95, 1.62, 7.38, repro,
2007-04-15,-0.28, -0.38, -0.92, 1.91, 1.61, 7.18, repro,
2007-04-16,0.41, 0.07, -4.97, 1.90, 1.60, 7.12, repro,
2007-04-17,-1.38, -0.70, -7.92, 1.91, 1.61, 7.18, repro,
2007-04-18,0.84, -1.48, -3.88, 1.91, 1.60, 7.19, repro,
2007-04-19,-0.87, -0.55, 0.11, 1.93, 1.59, 7.21, repro,
2007-04-20,-0.98, -2.18, -3.91, 1.93, 1.59, 7.25, repro,
2007-04-21,0.04, -0.98, -4.59, 1.89, 1.59, 7.08, repro,
2007-04-22,-0.18, -0.39, 3.20, 1.92, 1.60, 7.24, repro,
2007-04-23,-1.91, -1.04, -5.39, 1.99, 1.68, 7.42, repro,
2007-04-24,-1.35, 0.20, -3.06, 1.99, 1.69, 7.44, repro,
2007-04-25,-0.49, -1.47, -6.43, 1.96, 1.63, 7.33, repro,
2007-04-26,0.11, -0.77, -6.40, 1.92, 1.60, 7.20, repro,
2007-04-27,-0.42, -0.27, -2.33, 1.90, 1.60, 7.18, repro,
2007-04-28,-0.56, 0.10, 0.15, 1.93, 1.61, 7.25, repro,
2007-04-29,-1.12, -1.84, -1.49, 1.91, 1.58, 7.15, repro,
2007-04-30,-0.57, -0.63, -5.30, 1.93, 1.59, 7.21, repro,
2007-05-01,-1.22, -0.60, 4.03, 1.91, 1.58, 7.13, repro,
2007-05-02,-2.33, -1.03, -11.06, 1.99, 1.61, 7.48, repro,
2007-05-03,1.48, 1.33, -10.74, 2.05, 1.64, 7.63, repro,
2007-05-04,0.02, -2.87, -3.55, 1.92, 1.59, 7.20, repro,
2007-05-05,-1.71, -1.20, -5.85, 1.97, 1.63, 7.33, repro,
2007-05-06,0.33, -0.30, -7.15, 1.95, 1.59, 7.26, repro,
2007-05-07,-0.96, -0.59, -0.31, 1.94, 1.60, 7.28, repro,
2007-05-08,-0.24, -0.85, 0.67, 1.93, 1.58, 7.19, repro,
2007-05-09,-0.70, -1.42, -7.88, 1.91, 1.58, 7.16, repro,
2007-05-10,-0.76, -1.73, -0.98, 2.03, 1.64, 7.57, repro,
2007-05-11,-0.55, -0.18, -7.35, 2.04, 1.64, 7.58, repro,
2007-05-12,0.07, -0.06, -6.61, 1.94, 1.59, 7.25, repro,
2007-05-13,0.07, -1.39, -5.67, 1.98, 1.62, 7.32, repro,
2007-05-14,-0.39, -1.24, -4.00, 1.97, 1.62, 7.38, repro,
2007-05-15,-0.20, -0.22, -0.29, 1.93, 1.59, 7.17, repro,
2007-05-16,-0.20, -0.30, -6.48, 1.97, 1.64, 7.31, repro,
2007-05-17,-0.77, -0.53, -2.22, 1.98, 1.63, 7.40, repro,
2007-05-18,-1.17, -1.32, -12.08, 1.98, 1.67, 7.49, repro,
2007-05-19,-0.32, -1.37, -2.15, 1.97, 1.62, 7.31, repro,
2007-05-20,-1.41, -1.93, -8.30, 2.01, 1.65, 7.44, repro,
2007-05-21,-1.28, 0.31, -0.71, 1.98, 1.62, 7.34, repro,
2007-05-22,-1.56, 0.00, -1.70, 1.98, 1.62, 7.31, repro,
2007-05-23,-0.66, -1.30, -2.58, 1.97, 1.62, 7.33, repro,
2007-05-24,-0.16, -1.01, -4.47, 2.09, 1.75, 7.84, repro,
2007-05-25,-1.04, -1.57, -3.66, 1.96, 1.59, 7.23, repro,
2007-05-26,-1.09, -0.67, -4.57, 1.97, 1.62, 7.30, repro,
2007-05-27,-1.10, -1.41, -2.35, 1.99, 1.64, 7.30, repro,
2007-05-28,-0.33, -1.67, -4.72, 1.97, 1.62, 7.28, repro,
2007-05-29,-0.83, -0.53, -2.05, 1.97, 1.62, 7.28, repro,
2007-05-30,-1.21, -1.41, -8.01, 2.00, 1.61, 7.37, repro,
2007-05-31,-1.83, -1.43, -6.20, 2.02, 1.65, 7.41, repro,
2007-06-01,-0.98, -1.83, -1.09, 1.96, 1.58, 7.15, repro,
2007-06-02,-0.19, 0.14, -4.53, 1.94, 1.61, 7.28, repro,
2007-06-03,-0.73, -1.33, -3.28, 1.93, 1.59, 7.20, repro,
2007-06-04,-0.78, -1.11, -2.36, 1.93, 1.59, 7.19, repro,
2007-06-05,0.59, 1.69, 4.58, 1.97, 1.60, 7.34, repro,
2007-06-06,-0.00, 0.20, 2.26, 1.95, 1.59, 7.28, repro,
2007-06-07,-0.46, -0.40, -0.10, 1.94, 1.61, 7.28, repro,
2007-06-08,-0.46, -0.24, -5.75, 1.94, 1.60, 7.21, repro,
2007-06-09,-1.20, -0.54, -4.28, 1.95, 1.63, 7.31, repro,
2007-06-10,-0.87, -0.63, -6.30, 1.93, 1.60, 7.22, repro,
2007-06-11,-0.49, -1.47, -0.85, 2.03, 1.77, 7.68, repro,
2007-06-12,-1.01, -1.21, -6.38, 2.00, 1.70, 7.45, repro,
2007-06-13,-0.56, -2.13, -4.04, 2.01, 1.65, 7.36, repro,
2007-06-14,-1.25, -0.29, -1.72, 1.97, 1.64, 7.27, repro,
2007-06-15,-2.26, 0.33, -3.48, 1.91, 1.59, 7.13, repro,
2007-06-16,-0.83, -0.07, -7.19, 1.93, 1.61, 7.28, repro,
2007-06-17,-0.53, -1.39, -8.52, 1.92, 1.60, 7.24, repro,
2007-06-18,-1.54, 1.19, -5.69, 1.97, 1.61, 7.33, repro,
2007-06-19,-1.04, -1.47, -7.15, 1.93, 1.60, 7.19, repro,
2007-06-20,-0.66, -0.54, -9.87, 1.93, 1.59, 7.21, repro,
2007-06-21,-1.56, 1.17, -3.11, 1.93, 1.59, 7.20, repro,
2007-06-22,-1.28, -0.12, -8.15, 1.93, 1.59, 7.22, repro,
2007-06-23,-0.39, -0.13, -3.58, 1.94, 1.60, 7.24, repro,
2007-06-24,-1.55, -0.29, -5.74, 1.96, 1.64, 7.37, repro,
2007-06-25,-1.93, -0.39, -8.94, 1.94, 1.59, 7.24, repro,
2007-06-26,-0.93, 0.63, -9.91, 1.93, 1.61, 7.27, repro,
2007-06-27,-1.16, -0.69, -13.37, 1.92, 1.59, 7.20, repro,
2007-06-28,0.32, 0.00, -10.41, 1.93, 1.59, 7.25, repro,
2007-06-29,-1.18, 0.71, -2.25, 1.94, 1.59, 7.24, repro,
2007-06-30,-1.74, 0.34, -0.39, 1.93, 1.59, 7.20, repro,
2007-07-01,-1.02, -0.85, -5.08, 1.95, 1.61, 7.33, repro,
2007-07-02,-0.78, -0.66, -4.34, 1.95, 1.65, 7.37, repro,
2007-07-03,-1.23, 0.50, -5.00, 1.93, 1.59, 7.24, repro,
2007-07-04,-1.44, 1.20, -7.56, 1.94, 1.60, 7.29, repro,
2007-07-05,-1.77, -0.66, -2.56, 1.94, 1.60, 7.29, repro,
2007-07-06,-0.02, -1.47, -5.39, 1.97, 1.64, 7.51, repro,
2007-07-07,-1.22, 0.52, -3.93, 1.92, 1.60, 7.20, repro,